Theta_e
317 317 318 319 319 319 319 319 319 317 316 316 316 317 319 319 318 314 319 323 321 323 327 331 330 332 334 335 336 336 334 334 333 334 334 334 334 333 332 333 334 335 336 336 335 337 338 336 333 336 341 336 335 333
315 316 315 316 316 315 315 316 316 315 314 315 315 315 318 319 318 316 320 319 321 322 324 323 326 327 327 328 330 331 333 335 335 335 334 333 333 332 333 334 332 333 334 340 341 344 338 336 337 336 334 336 333 332
313 314 314 314 314 314 313 314 314 314 313 314 315 315 316 318 318 315 318 320 321 325 325 324 325 327 325 325 326 328 332 332 333 332 333 333 334 333 334 334 334 336 333 335 336 337 336 335 334 333 332 334 333 330
311 311 312 313 312 313 313 314 314 313 313 314 314 315 315 317 317 316 318 321 321 323 325 326 326 327 325 324 324 325 326 329 330 330 331 329 329 329 330 331 336 338 336 334 332 339 336 334 334 333 332 332 330 328
308 309 310 311 312 313 314 314 314 314 314 314 314 314 315 317 317 317 318 322 322 322 328 328 325 324 324 323 323 323 323 324 326 327 328 327 328 328 330 333 332 332 333 335 334 339 339 335 334 333 333 331 330 326
303 306 308 310 311 312 312 313 314 315 315 314 314 314 315 317 317 319 327 324 319 319 325 327 325 324 323 323 323 324 325 325 326 327 328 328 328 330 331 329 331 330 329 333 335 334 336 334 333 333 333 332 329 324
300 302 306 308 310 312 312 313 315 315 315 314 314 315 316 316 316 321 325 321 314 316 325 327 325 327 324 323 324 326 325 326 326 327 326 327 328 328 328 327 329 330 331 333 332 331 333 331 332 332 332 329 322 321
300 300 304 308 310 311 312 312 314 314 315 314 316 316 316 316 315 317 319 317 314 321 325 326 326 327 326 326 327 326 327 328 328 326 327 328 330 329 331 328 328 333 332 332 330 331 329 331 332 332 330 326 322 320
300 301 304 307 309 311 311 312 314 315 315 315 316 316 314 315 321 323 321 317 319 323 330 327 326 330 327 326 327 328 327 330 330 330 329 330 330 331 334 333 332 332 331 331 331 330 330 332 333 332 329 326 324 321
300 301 305 306 308 310 311 311 313 315 316 316 315 320 326 323 319 318 319 324 325 326 325 327 328 328 329 327 329 329 330 330 333 335 332 334 335 340 339 336 336 334 333 332 332 332 331 331 332 332 329 327 324 321
300 300 302 305 306 309 310 311 313 315 316 318 322 325 323 320 321 325 330 330 331 330 328 327 327 329 327 330 330 329 336 332 334 335 336 335 338 344 338 336 334 333 332 332 331 331 331 331 331 331 330 327 323 320
299 299 300 303 306 307 310 311 313 315 319 316 313 317 321 324 327 330 328 329 330 332 329 327 327 327 329 328 332 335 331 331 335 335 336 336 344 339 335 333 332 331 330 329 330 331 330 330 330 330 330 327 323 321
299 299 300 300 304 306 308 311 313 314 315 318 320 323 324 325 329 327 328 329 329 329 331 329 330 326 328 328 330 333 332 337 333 335 334 343 345 338 336 333 331 329 330 329 330 329 330 330 330 328 327 325 323 322
299 299 300 300 302 304 307 310 313 313 313 320 324 326 326 326 326 325 327 329 329 331 328 329 328 327 326 329 331 332 332 332 334 334 338 343 341 336 333 331 330 330 329 329 329 329 329 328 327 325 324 322 322 321
299 299 300 300 301 303 305 310 313 313 317 323 324 330 325 324 325 326 327 327 328 329 328 330 331 329 331 331 331 330 332 332 331 335 341 341 337 335 333 331 330 330 330 330 330 330 329 327 327 326 324 322 321 321
299 300 301 301 302 303 306 311 312 314 318 321 322 325 324 325 325 325 323 325 326 325 328 330 329 331 329 331 330 329 329 330 334 336 336 337 339 334 334 332 331 329 330 329 329 329 328 328 327 326 325 325 324 322
299 302 305 303 302 303 308 310 312 316 319 321 322 321 322 323 325 324 325 326 324 326 332 331 330 328 327 328 328 327 329 329 329 330 333 340 335 332 330 329 328 329 332 329 327 330 329 327 327 327 329 326 325 323
302 305 304 305 302 305 309 310 312 313 320 321 322 323 322 322 323 324 325 324 326 325 330 330 329 331 328 326 326 329 327 327 328 328 333 335 335 330 329 329 328 328 330 327 327 326 327 326 328 328 327 326 326 325
304 305 305 306 304 310 311 311 311 318 320 320 320 321 321 322 323 322 323 323 325 325 325 326 327 327 327 327 326 327 327 328 328 328 327 329 327 327 329 328 327 329 328 327 326 326 324 322 324 326 326 327 324 324
300 304 304 307 307 311 316 312 314 319 321 322 321 321 321 324 321 320 321 321 324 325 326 325 325 324 325 326 324 325 325 325 324 324 323 321 321 322 325 326 325 327 327 323 322 322 321 321 323 324 321 325 325 324
302 306 308 307 309 310 315 317 316 318 320 323 321 322 322 322 321 320 320 319 320 321 323 322 322 322 323 322 321 321 322 322 323 323 323 323 321 321 320 319 320 322 323 324 324 323 321 321 319 319 325 325 324 324
307 309 309 310 310 311 314 316 319 319 320 320 321 320 322 322 322 322 319 320 320 320 320 321 322 323 323 325 322 322 323 323 323 324 323 322 323 323 323 322 321 321 320 321 322 321 319 319 322 321 319 319 322 323
309 309 310 310 312 314 317 316 319 319 321 321 321 319 322 323 324 321 320 320 323 320 321 322 323 322 323 323 324 324 324 325 326 324 324 324 324 323 322 323 323 322 321 321 320 320 320 319 319 318 318 319 322 323
308 310 312 314 313 316 316 318 318 320 319 321 319 319 320 320 320 320 322 321 321 320 321 321 320 321 322 325 324 322 323 323 325 325 324 324 325 324 323 323 323 321 321 320 320 319 320 319 320 322 322 321 321 323
311 312 312 313 314 316 318 318 319 319 320 319 318 318 321 321 322 320 320 323 320 322 319 319 320 321 322 323 322 320 319 321 323 324 324 324 323 323 324 322 322 321 321 321 321 320 320 320 319 320 321 320 322 322
312 312 313 313 315 317 317 319 318 319 318 318 318 318 319 321 321 323 325 324 322 322 319 319 323 323 321 321 323 322 321 319 322 323 322 321 322 323 324 325 324 323 323 322 322 321 321 321 321 320 320 320 319 323
315 315 314 312 315 316 317 317 319 318 319 319 319 319 319 322 323 324 322 319 319 317 317 319 320 321 322 321 321 322 321 320 321 322 322 321 321 321 320 323 324 322 320 320 321 323 322 323 323 323 322 321 322 321
313 314 315 314 314 316 318 318 319 320 320 319 319 321 322 322 322 322 319 319 321 321 320 320 319 319 320 319 319 320 321 321 322 321 321 321 321 320 318 319 320 322 319 320 320 320 319 321 322 323 323 322 323 322
314 314 315 315 316 317 317 319 318 317 317 318 320 320 320 322 319 319 320 320 320 320 319 318 319 319 319 319 319 319 320 321 321 322 322 324 323 319 317 316 319 322 322 322 323 320 317 318 320 320 322 323 323 323
315 314 316 315 316 317 316 316 316 316 316 316 316 320 323 320 316 316 316 316 316 316 317 318 317 318 318 317 318 318 318 318 317 317 317 318 317 316 316 317 318 319 319 320 321 320 318 319 320 320 319 319 319 320
313 314 315 315 316 315 315 315 316 315 315 317 319 319 321 318 316 314 314 314 314 315 316 316 316 315 315 315 315 315 315 314 313 312 311 311 311 312 313 315 317 318 319 319 319 321 322 321 321 319 318 319 321 319
314 315 317 317 316 316 316 316 317 320 321 320 318 321 318 315 314 313 312 313 313 313 313 314 314 312 312 310 310 310 310 308 306 306 305 306 307 306 306 306 307 311 315 317 319 320 321 321 321 320 318 317 317 315
315 315 315 316 316 316 316 316 318 320 317 317 315 313 314 314 313 312 312 311 311 312 312 311 310 309 308 307 306 307 309 309 307 305 303 302 302 302 301 299 301 305 311 311 310 310 312 309 308 310 310 309 310 310
Wind_Speed
9 10 10 10 10 11 12 14 16 16 15 16 16 16 15 18 20 23 12 7 8 6 11 14 11 9 12 9 5 8 7 5 4 4 7 9 8 10 4 7 10 10 6 8 10 12 10 12 4 4 7 10 10 8
8 8 8 9 10 11 13 15 15 14 15 15 15 16 14 15 17 17 11 14 12 8 10 20 18 11 8 3 8 7 6 7 7 4 2 4 8 4 6 9 10 8 5 5 5 5 7 9 10 7 8 10 6 5
8 9 9 9 10 12 13 14 12 12 13 14 14 14 15 14 14 15 12 13 19 8 12 14 11 13 8 8 6 6 6 9 4 5 6 5 4 6 8 5 6 9 6 5 1 7 6 8 7 8 5 10 9 7
9 10 10 11 12 12 12 12 11 13 14 14 13 13 15 14 14 16 11 13 13 9 5 8 7 5 6 4 4 8 8 2 5 1 6 6 7 6 8 7 5 4 3 3 7 9 6 5 6 7 7 8 10 6
12 11 12 11 11 11 11 12 13 13 13 13 13 13 14 13 15 18 14 10 5 6 5 9 13 9 6 8 4 5 7 6 5 5 5 7 7 8 4 9 7 6 4 6 3 7 3 3 9 7 10 6 5 4
11 12 11 10 11 10 12 12 12 12 12 12 12 13 12 12 14 9 3 4 4 8 4 4 1 2 4 4 5 3 6 3 5 6 5 6 1 1 4 8 11 9 3 7 5 5 6 3 1 8 8 6 6 4
12 12 12 11 10 10 11 11 11 11 10 10 11 11 12 11 12 6 4 2 7 7 3 4 4 6 6 6 7 5 6 4 4 6 6 7 2 4 6 10 7 0 5 6 4 0 2 1 5 6 7 9 5 5
15 14 10 9 10 10 10 11 11 10 10 11 12 12 11 14 15 9 6 6 5 6 5 4 7 4 8 6 6 4 4 5 4 5 4 5 5 3 4 9 5 8 5 4 5 5 4 5 7 6 8 8 7 6
14 12 7 8 10 9 10 10 11 11 12 12 11 12 9 5 5 3 4 3 4 5 5 4 9 3 5 7 5 4 3 5 5 5 7 4 7 6 6 7 1 3 1 2 4 6 5 6 9 8 7 8 8 7
12 11 7 7 9 9 9 10 11 11 11 11 8 6 3 4 3 1 2 3 5 5 4 5 9 7 4 6 3 3 5 5 5 8 4 3 8 9 8 6 3 2 1 4 4 6 4 4 7 9 8 6 6 6
11 12 9 9 10 9 9 9 10 11 8 4 5 2 2 1 4 5 3 5 6 5 5 7 10 9 3 5 5 5 2 3 4 1 3 4 5 6 9 6 3 1 5 7 6 6 7 6 6 8 8 8 7 7
11 11 12 10 9 8 8 8 8 5 5 9 11 8 4 4 4 4 4 4 6 5 3 5 6 8 1 2 3 3 3 2 2 3 3 5 7 8 6 4 1 1 5 8 8 7 5 5 6 4 5 7 10 9
10 11 12 12 10 8 7 8 7 9 12 7 5 3 2 3 2 5 8 5 6 5 5 4 4 4 3 4 4 2 2 1 5 2 5 3 8 6 3 1 3 1 5 5 3 4 1 4 2 4 5 6 8 10
10 10 12 11 10 8 7 7 5 2 3 3 2 3 4 6 6 9 5 3 2 3 2 3 1 5 6 6 1 1 2 2 3 6 3 7 7 5 4 1 2 2 2 3 4 2 3 3 5 4 6 8 9 10
10 10 12 14 11 8 7 6 4 2 5 3 4 4 8 8 6 5 3 1 1 2 2 3 2 3 2 2 2 2 2 5 5 1 6 7 7 6 5 5 4 2 2 3 2 4 6 6 7 7 7 8 10 11
8 10 14 12 12 8 5 3 5 3 5 3 4 7 6 7 8 5 4 4 2 3 2 1 1 2 2 2 4 4 4 2 5 4 6 7 6 5 5 6 5 11 8 5 4 1 4 7 9 10 10 11 12 13
4 4 4 3 15 8 3 3 2 4 3 4 5 7 6 4 3 4 3 4 2 3 1 2 2 2 2 3 2 3 3 2 4 4 6 7 5 3 3 3 7 9 9 9 9 2 4 6 10 9 9 11 14 15
6 1 4 1 13 6 3 2 2 0 5 7 6 2 3 2 4 4 1 1 3 4 0 2 3 4 3 2 1 2 5 7 5 5 3 4 3 1 3 5 5 8 8 8 16 22 17 9 13 15 15 20 18 18
1 3 1 8 13 4 3 3 2 3 8 6 6 1 3 1 2 1 2 3 2 1 4 2 3 4 1 3 3 3 5 4 4 4 5 8 9 7 8 9 11 12 8 6 10 16 9 9 15 14 15 14 14 19
10 7 6 11 13 3 4 1 4 4 3 3 4 4 5 1 1 1 5 5 3 4 4 4 6 6 6 5 4 4 7 8 8 8 8 8 13 13 9 10 10 7 9 5 4 11 23 16 15 12 6 23 13 16
5 3 8 16 7 4 3 2 4 3 1 3 3 5 2 3 6 5 5 5 4 6 8 7 7 4 12 9 8 8 8 8 6 7 8 8 13 15 16 17 17 15 13 13 12 15 20 15 17 19 15 13 15 15
3 6 5 3 2 2 2 6 3 2 3 3 3 4 2 1 3 1 2 5 4 6 5 4 7 8 9 9 12 13 13 13 13 13 15 17 9 8 10 17 16 12 11 9 16 14 16 18 19 9 5 13 28 14
4 3 3 2 2 2 4 6 4 3 3 2 2 2 1 1 2 2 3 1 3 5 5 7 9 9 10 14 14 14 14 14 12 13 14 12 7 11 14 18 21 12 10 14 16 13 16 18 15 13 14 12 19 20
3 2 2 3 3 3 2 3 3 2 3 2 3 2 3 2 0 2 1 2 4 3 2 2 7 5 6 9 6 7 10 13 16 14 9 15 12 12 15 20 21 15 13 13 16 14 17 14 12 13 15 15 27 27
1 1 3 3 3 4 2 2 1 2 2 3 3 2 2 5 2 1 3 2 3 2 3 4 6 5 6 6 7 10 12 14 8 5 20 13 13 16 14 14 18 16 14 16 13 13 20 13 13 19 18 19 22 16
2 3 3 2 1 1 1 2 2 4 2 2 3 2 2 1 4 3 2 3 2 1 3 5 5 6 5 15 7 7 11 11 10 10 14 17 14 14 10 10 8 12 19 19 22 18 18 19 16 21 26 26 20 12
1 2 2 4 3 4 3 1 5 3 3 2 1 2 2 2 3 3 4 5 4 6 9 9 15 15 12 9 11 16 18 23 24 22 23 21 21 13 18 15 9 10 15 25 24 25 29 32 18 15 19 18 17 10
1 2 2 4 1 1 1 2 2 3 4 3 2 4 4 5 3 3 3 17 12 10 14 6 14 17 18 22 20 20 22 19 16 22 23 25 30 24 20 18 36 31 21 20 16 16 23 30 35 20 22 23 20 25
2 2 3 5 1 3 2 2 2 3 2 4 3 3 3 3 5 3 11 14 14 14 16 17 23 24 22 23 20 22 19 19 18 17 16 10 12 27 37 32 37 36 22 12 16 22 14 16 29 30 21 19 20 22
1 2 3 5 3 4 3 4 2 3 3 5 3 9 8 11 19 20 17 17 17 17 18 16 21 18 18 23 22 23 24 24 24 20 11 12 16 22 23 25 28 31 34 31 17 14 16 20 14 15 21 17 16 16
2 2 2 2 2 3 3 3 3 3 2 5 8 5 6 5 14 22 22 20 18 18 23 21 19 20 23 25 20 20 16 23 23 24 25 23 24 27 29 30 30 32 30 29 30 21 25 10 15 17 11 23 41 18
3 2 1 1 1 4 2 4 4 7 9 10 10 8 6 4 5 10 19 19 18 18 18 12 11 14 16 19 21 20 20 25 31 28 30 29 26 27 26 28 29 27 26 26 24 23 17 15 12 12 11 12 25 31
3 3 3 3 2 2 5 5 4 5 7 6 6 5 5 3 4 4 13 16 12 10 14 15 16 18 19 20 21 21 22 21 26 31 32 32 31 28 28 33 30 26 25 20 20 20 21 21 20 19 17 16 20 23
Wind_Direction
282 287 289 291 289 292 294 297 303 309 313 321 324 328 332 341 350 349 296 323 337 310 300 318 334 350 343 0 79 279 276 224 271 241 271 289 295 296 299 286 294 287 269 263 249 268 252 100 125 323 107 111 99 85
286 289 292 292 293 298 300 303 304 303 313 316 321 324 327 336 343 350 304 333 324 275 284 307 293 284 280 292 308 323 0 319 19 319 349 303 292 308 287 284 287 232 296 342 31 56 91 65 91 126 124 120 106 105
286 290 294 297 298 298 310 311 307 306 312 315 317 320 320 324 335 340 310 309 321 275 272 248 255 207 250 271 320 305 331 8 20 16 322 308 320 327 290 273 264 198 195 246 217 127 142 113 92 95 68 105 93 84
282 287 291 292 296 301 303 300 303 306 309 310 310 312 313 315 324 324 308 308 310 305 273 210 153 216 245 268 299 325 309 299 281 313 277 269 269 266 263 283 297 66 101 245 268 154 148 169 146 125 95 97 93 89
273 283 291 286 291 298 303 302 303 305 308 304 302 303 306 313 319 312 284 277 295 318 324 315 316 188 208 217 260 271 272 260 251 237 236 252 264 278 265 282 282 269 250 235 333 49 108 34 160 152 133 138 124 114
285 275 275 284 289 293 298 305 307 308 307 302 298 298 304 312 322 324 207 140 25 346 283 277 243 154 242 120 236 248 267 245 252 263 253 260 128 12 281 255 232 232 353 50 37 68 174 74 124 144 139 150 138 161
319 291 272 272 284 287 296 307 310 309 308 304 298 299 304 307 310 273 334 26 326 330 262 274 252 131 202 208 229 232 196 235 251 246 248 275 273 165 259 275 336 6 93 66 350 103 76 260 148 130 132 126 129 137
326 315 266 269 284 282 293 301 305 304 303 300 302 299 295 296 290 276 254 256 230 267 276 274 267 177 178 212 235 203 242 199 209 250 254 243 155 223 260 258 267 60 80 121 264 185 255 158 124 145 145 146 187 174
321 325 291 276 288 281 289 300 302 298 294 302 299 297 297 227 234 120 176 198 215 274 304 253 263 102 168 225 234 156 243 249 202 213 243 244 228 223 211 230 155 96 301 267 224 234 236 183 148 169 188 184 211 198
313 305 290 279 285 286 286 295 301 295 293 298 302 212 204 53 104 115 173 193 198 204 226 254 291 282 180 203 207 249 172 244 224 214 222 250 250 277 135 129 88 18 250 245 256 227 210 222 180 179 198 222 229 225
300 303 289 288 286 288 285 297 301 302 289 237 239 36 105 303 232 217 233 219 182 209 207 232 244 271 157 264 219 207 343 260 237 178 219 244 239 135 122 126 133 232 266 257 235 236 215 212 236 200 192 200 225 233
287 289 280 272 283 295 289 298 294 299 313 309 301 288 269 228 228 228 224 216 196 222 163 215 218 229 64 324 272 24 245 272 268 183 234 256 101 107 121 115 168 215 275 265 239 207 216 207 218 232 213 207 206 230
283 281 280 273 261 286 290 295 280 283 304 286 226 255 198 231 43 230 211 215 208 194 155 186 215 230 110 245 257 156 304 324 309 262 259 70 130 121 108 51 291 177 271 273 240 222 179 138 171 250 233 233 229 209
280 276 280 272 259 269 283 288 273 297 285 236 248 289 226 205 226 224 255 57 56 106 195 124 104 186 205 195 159 221 164 268 258 250 268 116 101 93 75 60 16 8 297 285 250 195 165 211 201 231 259 257 236 229
278 275 267 262 255 262 277 271 228 231 262 237 237 232 227 252 281 104 92 137 247 280 133 104 273 217 297 116 243 215 203 239 235 110 108 114 96 73 51 20 15 20 333 301 226 207 216 231 221 239 246 251 247 236
278 289 258 240 229 241 265 228 175 216 266 253 243 242 261 288 6 331 199 127 48 223 102 14 42 274 226 307 246 206 226 333 96 97 118 120 112 102 68 19 346 325 323 280 323 274 208 232 233 239 232 231 241 245
257 261 358 228 206 225 223 152 205 235 248 253 233 241 273 288 333 91 82 105 259 306 21 297 203 205 252 218 235 281 18 98 321 120 120 117 123 77 28 335 315 311 304 276 278 34 34 341 309 289 242 239 251 249
236 187 269 179 175 182 172 191 252 331 258 230 252 342 248 109 351 40 42 37 42 341 301 350 300 226 264 348 196 1 3 11 22 15 80 91 54 199 281 299 292 293 303 342 325 317 270 255 257 253 255 244 231 237
234 164 221 178 173 176 173 183 163 248 233 258 256 207 287 70 107 150 78 5 313 287 298 252 268 254 234 286 346 32 330 6 10 339 322 359 351 295 261 273 281 272 284 342 295 285 305 350 301 268 301 267 236 246
248 251 249 192 188 272 167 178 232 252 272 281 260 231 211 282 49 25 299 280 194 192 233 228 250 280 306 35 24 350 343 352 338 323 316 322 324 322 313 276 281 268 284 275 246 293 302 313 306 286 259 269 262 255
238 241 145 162 204 262 289 194 213 255 232 272 201 222 223 231 209 221 219 231 272 269 273 271 283 323 43 32 353 346 312 307 312 315 312 308 312 313 300 295 283 260 265 247 239 249 248 280 280 294 289 300 277 254
179 114 110 168 240 262 263 249 248 263 223 229 231 246 147 247 308 287 215 205 220 233 231 323 14 2 345 346 341 328 317 307 294 288 277 269 261 276 305 306 297 296 288 287 268 261 268 263 267 258 277 281 290 255
130 131 139 132 9 235 253 241 232 220 229 201 202 243 64 124 107 220 247 202 64 21 14 29 13 337 309 297 285 278 275 272 274 270 265 281 307 300 297 296 298 281 299 291 280 281 260 275 219 236 262 270 258 255
95 125 169 190 205 260 212 219 198 223 190 240 184 179 168 147 209 263 104 54 123 168 125 297 297 294 278 278 267 318 339 327 284 260 338 325 282 305 298 291 292 291 288 296 284 278 268 270 260 231 237 230 245 238
178 60 75 327 245 243 237 173 168 222 219 191 205 140 179 182 168 250 183 123 163 73 47 338 288 304 292 344 312 309 302 279 302 340 298 270 298 294 288 297 310 308 297 310 292 291 286 257 264 273 262 251 264 212
145 170 175 261 221 178 239 171 93 286 213 194 165 190 209 137 202 142 86 188 88 347 20 342 316 20 330 296 296 293 308 277 240 243 285 305 281 258 289 312 324 306 358 331 292 286 286 294 277 258 255 257 267 190
170 133 179 230 255 192 211 207 241 231 205 174 247 162 203 213 67 57 314 54 29 358 334 355 17 356 340 310 352 354 356 1 2 359 348 330 310 347 352 303 256 289 321 301 299 324 333 316 293 295 293 287 289 278
333 56 166 177 221 42 59 354 310 26 1 335 122 39 26 29 30 317 350 346 14 1 23 13 42 354 330 354 1 351 340 347 16 20 356 350 353 342 351 350 342 314 289 286 292 303 318 305 318 282 277 266 284 293
194 203 208 125 229 84 43 267 254 228 231 75 98 127 162 47 62 23 28 26 28 15 27 24 17 8 8 12 12 17 17 29 18 19 23 7 344 335 340 340 329 319 328 257 260 256 264 267 295 304 292 266 265 274
266 156 192 162 188 207 221 188 234 255 99 127 141 97 79 61 44 36 33 28 29 20 10 60 31 6 13 8 353 10 17 16 29 33 359 352 348 345 344 330 318 317 327 318 296 285 270 280 279 289 290 282 272 285
279 243 190 191 240 223 243 207 196 136 145 49 21 91 123 129 74 38 27 29 24 19 20 12 17 14 14 356 337 0 9 28 25 18 13 4 355 348 341 337 334 334 336 334 323 343 354 309 291 289 272 346 335 284
238 230 344 301 229 257 185 86 77 76 66 57 41 68 76 70 53 7 9 14 11 12 0 348 358 351 5 1 5 359 6 65 46 32 23 16 10 1 353 349 344 339 335 329 345 356 11 12 13 30 354 350 360 358
223 232 226 240 220 240 175 168 147 100 56 40 34 31 58 58 65 355 5 17 10 336 342 353 5 14 13 8 2 355 1 15 13 18 18 20 17 15 12 9 4 358 357 11 10 13 35 40 24 13 18 29 31 22